Date String (YYYY-MM-DD hh:mm:ss) UTC,Instrument flags,Ambient pressure (hPa),Sample flow (lpm),Bypass flow (lpm),Sample temperature (°C),Ambient temperature (°C),ASC tube jacket temperature (°C),LED temperature (°C),Box temperature (°C),Sample RH (%),Span deviation,Mass concentration (μg/m³),Mass concentration (μg/m³),Mass concentration (μg/m³)
DateTimeUTC,F1_M11,P_M11,Q1_M11,Q2_M11,T1_M11,T2_M11,T3_M11,T4_M11,T5_M11,U1_M11,ZSPAN_M11,X0_M11,X2_M11,X1_M11
2022-06-04 19:00:00,,0820.6,5.02,0.00,29.3,27.4,00.0,38.0,31.0,17.6,0000.0,0011.35,0003.73,0002.97
2022-06-04 19:01:00,,0820.6,5.00,0.00,29.2,26.9,00.0,37.9,30.9,17.7,0000.0,0011.17,0003.70,0002.92
2022-06-04 19:02:00,,0820.6,5.00,0.00,29.1,26.9,00.0,37.9,30.9,16.5,0000.0,0010.52,0003.67,0002.88
2022-06-04 19:03:00,,0820.6,4.99,0.00,29.1,27.0,00.0,37.9,30.9,17.1,0000.0,0010.24,0003.65,0002.83
2022-06-04 19:04:00,,0820.6,5.00,0.00,29.1,27.2,00.0,37.9,30.9,16.8,0000.0,0010.51,0003.62,0002.78
2022-06-04 19:05:00,,0820.7,5.00,0.00,29.1,27.4,00.0,37.9,30.9,15.8,0000.0,0009.59,0003.61,0002.74
2022-06-04 19:06:00,,0820.7,5.01,0.00,29.1,27.5,00.0,37.9,31.0,17.3,0000.0,0009.29,0003.58,0002.69
2022-06-04 19:07:00,,0820.7,5.00,0.00,29.1,27.7,00.0,37.9,31.0,16.8,0000.0,0009.43,0003.54,0002.65
2022-06-04 19:08:00,,0820.7,5.00,0.00,29.1,27.9,00.0,37.9,31.1,18.4,0000.0,0009.80,0003.47,0002.61
2022-06-04 19:09:00,,0820.7,5.02,0.00,29.1,28.0,00.0,37.9,31.1,17.9,0000.0,0010.20,0003.48,0002.60
2022-06-04 19:10:00,,0820.6,5.00,0.00,29.2,28.1,00.0,38.0,31.2,17.8,0000.0,0010.47,0003.50,0002.60
2022-06-04 19:11:00,,0820.6,5.00,0.00,29.2,28.2,00.0,38.0,31.2,18.0,0000.0,0010.54,0003.54,0002.63
2022-06-04 19:12:00,,0820.6,5.00,0.00,29.2,28.3,00.0,38.0,31.2,18.8,0000.0,0010.87,0003.61,0002.70
2022-06-04 19:13:00,,0820.6,4.99,0.00,29.3,28.4,00.0,38.0,31.3,18.5,0000.0,0011.61,0003.62,0002.76
2022-06-04 19:14:00,,0820.6,5.02,0.00,29.3,28.4,00.0,38.0,31.3,19.8,0000.0,0011.30,0003.62,0002.82
2022-06-04 19:15:00,,0820.6,5.00,0.00,29.3,27.7,00.0,38.0,31.1,17.3,0000.0,0010.93,0003.64,0002.87
2022-06-04 19:16:00,,0820.5,5.00,0.00,29.2,27.0,00.0,37.9,30.9,18.0,0000.0,0010.96,0003.66,0002.92
2022-06-04 19:17:00,,0820.6,5.02,0.00,29.1,26.9,00.0,37.9,30.8,20.0,0000.0,0011.06,0003.73,0002.97
2022-06-04 19:18:00,,0820.6,5.00,0.00,29.1,26.9,00.0,37.9,30.8,17.6,0000.0,0011.19,0003.79,0003.00
2022-06-04 19:19:00,,0820.6,4.99,0.00,29.0,27.1,00.0,37.9,30.9,16.7,0000.0,0010.99,0003.83,0003.03
2022-06-04 19:20:00,,0820.6,5.00,0.00,29.0,27.3,00.0,37.9,30.9,17.6,0000.0,0011.09,0003.85,0003.04
2022-06-04 19:21:00,,0820.6,5.00,0.00,29.1,27.5,00.0,37.9,30.9,19.2,0000.0,0011.15,0003.85,0003.02
2022-06-04 19:22:00,,0820.6,5.00,0.00,29.1,27.6,00.0,37.9,31.0,16.8,0000.0,0011.15,0003.82,0002.99
2022-06-04 19:23:00,,0820.6,5.00,0.00,29.1,27.8,00.0,37.9,31.0,17.3,0000.0,0010.90,0003.78,0002.96
2022-06-04 19:24:00,,0820.6,5.01,0.00,29.1,28.0,00.0,37.9,31.1,18.0,0000.0,0010.31,0003.82,0002.94
2022-06-04 19:25:00,,0820.6,5.00,0.00,29.1,28.1,00.0,37.9,31.1,17.0,0000.0,0010.52,0003.85,0002.90
2022-06-04 19:26:00,,0820.6,5.00,0.00,29.2,28.2,00.0,38.0,31.2,17.8,0000.0,0010.64,0003.88,0002.87
2022-06-04 19:27:00,,0820.6,5.00,0.00,29.2,28.3,00.0,38.0,31.2,16.4,0000.0,0010.72,0003.88,0002.84
2022-06-04 19:28:00,,0820.6,5.00,0.00,29.3,28.4,00.0,38.0,31.3,16.3,0000.0,0010.58,0003.87,0002.80
2022-06-04 19:29:00,,0820.6,4.99,0.00,29.3,28.4,00.0,38.0,31.3,16.6,0000.0,0009.54,0003.82,0002.78
2022-06-04 19:30:00,,0820.6,5.01,0.00,29.3,27.7,00.0,38.0,31.1,17.4,0000.0,0009.45,0003.79,0002.77
2022-06-04 19:31:00,,0820.6,5.00,0.00,29.2,27.0,00.0,37.9,30.9,17.9,0000.0,0008.99,0003.80,0002.76
2022-06-04 19:32:00,,0820.6,5.00,0.00,29.1,26.9,00.0,37.9,30.8,16.9,0000.0,0008.72,0003.77,0002.73
2022-06-04 19:33:00,,0820.6,5.00,0.00,29.1,27.0,00.0,37.9,30.8,17.3,0000.0,0008.50,0003.74,0002.71
2022-06-04 19:34:00,,0820.6,5.01,0.00,29.0,27.1,00.0,37.9,30.8,16.6,0000.0,0008.62,0003.71,0002.69
2022-06-04 19:35:00,,0820.7,4.99,0.00,29.0,27.3,00.0,37.9,30.9,16.6,0000.0,0008.63,0003.65,0002.68
2022-06-04 19:36:00,,0820.7,4.99,0.00,29.0,27.5,00.0,37.9,30.9,16.2,0000.0,0009.10,0003.63,0002.69
2022-06-04 19:37:00,,0820.7,5.01,0.00,29.1,27.6,00.0,37.9,31.0,18.3,0000.0,0009.02,0003.61,0002.69
2022-06-04 19:38:00,,0820.7,5.01,0.00,29.1,27.8,00.0,37.9,31.0,18.1,0000.0,0009.13,0003.62,0002.67
2022-06-04 19:39:00,,0820.7,5.00,0.00,29.1,28.0,00.0,37.9,31.1,17.3,0000.0,0010.11,0003.61,0002.68
2022-06-04 19:40:00,,0820.6,4.99,0.00,29.1,28.1,00.0,37.9,31.1,17.7,0000.0,0011.44,0003.59,0002.67
2022-06-04 19:41:00,,0820.7,4.99,0.00,29.2,28.2,00.0,37.9,31.2,17.2,0000.0,0012.83,0003.63,0002.66
2022-06-04 19:42:00,,0820.7,5.00,0.00,29.2,28.3,00.0,38.0,31.2,17.9,0000.0,0013.20,0003.61,0002.65
2022-06-04 19:43:00,,0820.6,5.00,0.00,29.3,28.4,00.0,38.0,31.3,18.5,0000.0,0013.20,0003.60,0002.64
2022-06-04 19:44:00,,0820.6,5.00,0.00,29.3,28.5,00.0,38.0,31.3,17.7,0000.0,0013.26,0003.61,0002.64
2022-06-04 19:45:00,,0820.6,4.99,0.00,29.3,28.1,00.0,38.0,31.2,17.7,0000.0,0013.15,0003.65,0002.66
2022-06-04 19:46:00,,0820.6,5.00,0.00,29.3,27.3,00.0,37.9,31.0,17.8,0000.0,0013.92,0003.70,0002.65
2022-06-04 19:47:00,,0820.6,5.00,0.00,29.2,27.0,00.0,37.9,30.9,17.0,0000.0,0013.98,0003.68,0002.65
2022-06-04 19:48:00,,0820.5,5.00,0.00,29.1,27.0,00.0,37.9,30.8,17.7,0000.0,0013.99,0003.64,0002.65
2022-06-04 19:49:00,,0820.5,4.99,0.00,29.1,27.1,00.0,37.9,30.9,18.8,0000.0,0014.17,0003.68,0002.68
2022-06-04 19:50:00,,0820.6,5.01,0.00,29.1,27.3,00.0,37.9,30.9,17.1,0000.0,0013.59,0003.72,0002.68
2022-06-04 19:51:00,,0820.6,5.00,0.00,29.1,27.4,00.0,37.9,30.9,16.9,0000.0,0012.27,0003.75,0002.68
2022-06-04 19:52:00,,0820.6,5.00,0.00,29.1,27.6,00.0,37.9,31.0,17.3,0000.0,0010.95,0003.70,0002.68
2022-06-04 19:53:00,,0820.6,5.00,0.00,29.1,27.8,00.0,37.9,31.0,17.4,0000.0,0010.51,0003.69,0002.66
2022-06-04 19:54:00,,0820.5,5.00,0.00,29.1,28.0,00.0,37.9,31.1,16.4,0000.0,0011.46,0003.72,0002.69
2022-06-04 19:55:00,,0820.5,5.00,0.00,29.2,28.1,00.0,37.9,31.1,18.9,0000.0,0012.66,0003.74,0002.70
2022-06-04 19:56:00,,0820.5,5.01,0.00,29.2,28.3,00.0,38.0,31.2,17.5,0000.0,0012.93,0003.76,0002.68
2022-06-04 19:57:00,,0820.5,5.00,0.00,29.2,28.4,00.0,38.0,31.3,16.4,0000.0,0012.32,0003.74,0002.69
2022-06-04 19:58:00,,0820.5,5.00,0.00,29.3,28.5,00.0,38.0,31.3,15.9,0000.0,0011.72,0003.71,0002.69
2022-06-04 19:59:00,,0820.4,5.00,0.00,29.3,28.0,00.0,38.0,31.2,17.1,0000.0,0011.52,0003.71,0002.70
